QPF
0.00 0.00 0.00 0.00 0.00 0.00 0.00 0.00 0.00 0.00 0.00 0.00 0.00 0.00 0.00 0.00 0.00 0.00 0.00 0.00 0.00 0.00 0.00 0.00 0.00 0.00 0.00 0.00 0.00 0.00 0.00 0.00 0.00 0.00 0.00 0.00 0.00 0.00 0.00 0.01 0.01 0.03 0.04 0.03
0.00 0.00 0.00 0.00 0.00 0.00 0.00 0.00 0.00 0.00 0.00 0.00 0.00 0.00 0.00 0.00 0.00 0.00 0.00 0.00 0.00 0.00 0.00 0.00 0.00 0.00 0.00 0.00 0.00 0.00 0.00 0.00 0.00 0.00 0.00 0.00 0.00 0.00 0.00 0.00 0.00 0.02 0.03 0.04
0.00 0.00 0.00 0.00 0.00 0.00 0.00 0.00 0.00 0.00 0.00 0.00 0.00 0.00 0.00 0.00 0.00 0.00 0.00 0.00 0.00 0.00 0.00 0.00 0.00 0.00 0.00 0.00 0.00 0.00 0.00 0.00 0.00 0.00 0.00 0.00 0.00 0.00 0.00 0.00 0.00 0.00 0.01 0.03
0.00 0.00 0.00 0.00 0.00 0.00 0.00 0.00 0.00 0.00 0.00 0.00 0.00 0.00 0.00 0.00 0.00 0.00 0.00 0.00 0.00 0.00 0.00 0.00 0.00 0.00 0.00 0.00 0.00 0.00 0.00 0.00 0.00 0.00 0.00 0.00 0.00 0.00 0.00 0.00 0.00 0.00 0.00 0.00
0.00 0.00 0.00 0.00 0.00 0.00 0.00 0.00 0.00 0.00 0.00 0.00 0.00 0.00 0.00 0.00 0.00 0.00 0.00 0.00 0.00 0.00 0.00 0.00 0.00 0.00 0.00 0.00 0.00 0.00 0.00 0.00 0.00 0.00 0.00 0.00 0.00 0.00 0.00 0.00 0.00 0.00 0.00 0.00
0.00 0.00 0.00 0.00 0.00 0.00 0.00 0.00 0.00 0.00 0.00 0.00 0.00 0.00 0.00 0.00 0.00 0.00 0.00 0.00 0.00 0.00 0.00 0.00 0.00 0.00 0.00 0.00 0.00 0.00 0.00 0.00 0.00 0.00 0.00 0.00 0.00 0.00 0.00 0.00 0.00 0.00 0.00 0.00
0.00 0.00 0.00 0.00 0.00 0.00 0.00 0.00 0.00 0.00 0.00 0.00 0.00 0.00 0.00 0.00 0.00 0.00 0.00 0.00 0.00 0.00 0.00 0.00 0.00 0.00 0.00 0.00 0.00 0.00 0.00 0.00 0.00 0.00 0.00 0.00 0.00 0.00 0.00 0.00 0.00 0.00 0.00 0.00
0.00 0.00 0.00 0.00 0.00 0.00 0.00 0.00 0.00 0.00 0.00 0.00 0.00 0.00 0.00 0.00 0.00 0.00 0.00 0.00 0.00 0.00 0.00 0.00 0.00 0.00 0.00 0.00 0.00 0.00 0.00 0.00 0.00 0.00 0.00 0.00 0.00 0.00 0.00 0.00 0.00 0.00 0.00 0.00
0.00 0.00 0.00 0.00 0.00 0.00 0.00 0.00 0.00 0.00 0.00 0.00 0.00 0.00 0.00 0.00 0.00 0.00 0.00 0.00 0.00 0.00 0.00 0.00 0.00 0.00 0.00 0.00 0.00 0.00 0.00 0.00 0.00 0.00 0.00 0.00 0.00 0.00 0.00 0.00 0.00 0.00 0.00 0.00
0.00 0.00 0.00 0.00 0.00 0.00 0.00 0.00 0.00 0.00 0.00 0.00 0.00 0.00 0.00 0.00 0.00 0.00 0.00 0.00 0.00 0.00 0.00 0.00 0.00 0.00 0.00 0.00 0.00 0.00 0.00 0.00 0.00 0.00 0.00 0.00 0.00 0.00 0.00 0.00 0.00 0.00 0.00 0.00
0.00 0.00 0.00 0.00 0.00 0.00 0.00 0.00 0.00 0.00 0.00 0.00 0.00 0.00 0.00 0.00 0.00 0.00 0.00 0.00 0.00 0.00 0.00 0.00 0.00 0.00 0.00 0.00 0.00 0.00 0.00 0.00 0.00 0.00 0.00 0.00 0.00 0.00 0.00 0.00 0.01 0.00 0.00 0.00
0.00 0.00 0.00 0.00 0.00 0.00 0.00 0.00 0.00 0.00 0.00 0.00 0.00 0.00 0.00 0.00 0.00 0.00 0.00 0.00 0.00 0.00 0.00 0.00 0.00 0.00 0.00 0.00 0.00 0.00 0.00 0.00 0.00 0.00 0.00 0.00 0.00 0.00 0.00 0.00 0.00 0.01 0.01 0.01
0.00 0.00 0.00 0.00 0.00 0.00 0.00 0.00 0.00 0.00 0.00 0.00 0.00 0.00 0.00 0.00 0.00 0.00 0.00 0.00 0.00 0.00 0.00 0.00 0.00 0.00 0.00 0.00 0.00 0.00 0.00 0.00 0.00 0.00 0.00 0.00 0.00 0.00 0.00 0.00 0.00 0.00 0.00 0.00
0.00 0.00 0.00 0.00 0.00 0.00 0.00 0.00 0.00 0.00 0.00 0.00 0.00 0.00 0.00 0.00 0.00 0.00 0.00 0.00 0.00 0.00 0.00 0.00 0.00 0.00 0.00 0.00 0.00 0.00 0.00 0.00 0.00 0.00 0.00 0.00 0.00 0.00 0.00 0.00 0.00 0.00 0.00 0.00
0.00 0.00 0.00 0.00 0.00 0.00 0.00 0.00 0.00 0.00 0.00 0.00 0.00 0.00 0.00 0.00 0.00 0.00 0.00 0.00 0.00 0.00 0.00 0.00 0.00 0.00 0.00 0.00 0.00 0.00 0.00 0.00 0.00 0.00 0.00 0.00 0.00 0.00 0.00 0.00 0.00 0.00 0.00 0.00
0.00 0.00 0.00 0.00 0.00 0.00 0.00 0.00 0.00 0.00 0.00 0.00 0.00 0.00 0.00 0.00 0.00 0.00 0.00 0.00 0.00 0.00 0.00 0.00 0.00 0.00 0.00 0.00 0.00 0.00 0.00 0.00 0.00 0.00 0.00 0.00 0.00 0.00 0.00 0.00 0.00 0.00 0.00 0.00
0.00 0.00 0.00 0.00 0.00 0.00 0.00 0.00 0.00 0.00 0.00 0.00 0.00 0.00 0.00 0.00 0.00 0.00 0.00 0.00 0.00 0.00 0.00 0.00 0.00 0.00 0.00 0.00 0.00 0.00 0.00 0.00 0.00 0.00 0.00 0.00 0.00 0.00 0.00 0.00 0.00 0.00 0.00 0.00
0.00 0.00 0.00 0.00 0.00 0.00 0.00 0.00 0.00 0.00 0.00 0.00 0.00 0.00 0.00 0.00 0.00 0.00 0.00 0.00 0.00 0.00 0.00 0.00 0.00 0.00 0.00 0.00 0.00 0.00 0.00 0.00 0.00 0.00 0.00 0.00 0.00 0.00 0.00 0.00 0.00 0.00 0.00 0.00
0.00 0.00 0.00 0.00 0.00 0.00 0.00 0.00 0.00 0.00 0.00 0.00 0.00 0.00 0.00 0.00 0.00 0.00 0.00 0.00 0.00 0.00 0.00 0.00 0.00 0.00 0.00 0.00 0.00 0.00 0.00 0.00 0.00 0.00 0.00 0.00 0.00 0.00 0.00 0.00 0.00 0.00 0.00 0.00
0.00 0.00 0.00 0.00 0.00 0.00 0.00 0.00 0.00 0.00 0.00 0.00 0.00 0.00 0.00 0.00 0.00 0.00 0.00 0.00 0.00 0.00 0.00 0.00 0.00 0.00 0.00 0.00 0.00 0.00 0.00 0.00 0.00 0.00 0.00 0.00 0.00 0.00 0.00 0.00 0.00 0.00 0.00 0.00
0.00 0.00 0.00 0.00 0.00 0.00 0.00 0.00 0.00 0.00 0.00 0.00 0.00 0.00 0.00 0.00 0.00 0.00 0.00 0.00 0.00 0.00 0.00 0.00 0.00 0.00 0.00 0.00 0.00 0.00 0.00 0.00 0.00 0.00 0.00 0.00 0.00 0.00 0.00 0.00 0.00 0.00 0.00 0.00
0.00 0.00 0.00 0.00 0.00 0.00 0.00 0.00 0.00 0.00 0.00 0.00 0.00 0.00 0.00 0.00 0.00 0.00 0.00 0.00 0.00 0.00 0.00 0.00 0.00 0.00 0.00 0.00 0.00 0.00 0.00 0.00 0.00 0.00 0.00 0.00 0.00 0.00 0.00 0.00 0.00 0.00 0.00 0.00
0.00 0.00 0.00 0.00 0.00 0.00 0.00 0.00 0.00 0.00 0.00 0.00 0.00 0.00 0.00 0.00 0.00 0.00 0.00 0.00 0.00 0.00 0.00 0.00 0.00 0.00 0.00 0.00 0.00 0.00 0.00 0.00 0.00 0.00 0.00 0.00 0.00 0.00 0.00 0.00 0.00 0.00 0.00 0.00
0.00 0.00 0.00 0.00 0.00 0.00 0.00 0.00 0.00 0.00 0.00 0.00 0.00 0.00 0.00 0.00 0.00 0.00 0.00 0.00 0.00 0.00 0.00 0.00 0.00 0.00 0.01 0.00 0.00 0.00 0.00 0.00 0.00 0.00 0.00 0.00 0.00 0.00 0.00 0.00 0.00 0.00 0.00 0.00
0.00 0.00 0.00 0.00 0.00 0.00 0.00 0.00 0.00 0.00 0.00 0.00 0.00 0.00 0.00 0.00 0.00 0.00 0.00 0.00 0.00 0.00 0.00 0.00 0.00 0.00 0.00 0.00 0.00 0.00 0.00 0.00 0.00 0.00 0.00 0.00 0.00 0.00 0.00 0.00 0.00 0.00 0.00 0.00
0.00 0.00 0.00 0.00 0.00 0.00 0.00 0.00 0.00 0.00 0.00 0.00 0.00 0.00 0.00 0.00 0.00 0.00 0.00 0.00 0.00 0.00 0.00 0.00 0.00 0.00 0.00 0.00 0.00 0.00 0.00 0.00 0.00 0.00 0.00 0.00 0.00 0.00 0.00 0.00 0.00 0.00 0.00 0.00
0.00 0.00 0.00 0.00 0.00 0.00 0.00 0.00 0.00 0.00 0.00 0.00 0.00 0.00 0.00 0.00 0.00 0.00 0.00 0.00 0.00 0.00 0.00 0.00 0.00 0.00 0.00 0.00 0.00 0.00 0.00 0.00 0.00 0.00 0.00 0.00 0.00 0.00 0.00 0.00 0.00 0.00 0.00 0.00
MSLP
1036.11 1035.63 1035.57 1035.95 1036.78 1038.13 1039.62 1040.35 1040.82 1039.71 1038.62 1035.99 1034.47 1033.34 1032.04 1031.42 1030.47 1029.71 1029.11 1029.01 1028.53 1028.43 1028.39 1027.54 1026.91 1025.82 1024.91 1024.48 1023.04 1022.14 1021.78 1020.82 1019.53 1018.92 1017.61 1017.01 1015.84 1014.91 1013.59 1013.00 1012.85 1011.75 1011.78 1013.53
1036.02 1034.74 1034.62 1034.52 1035.27 1036.67 1037.99 1038.97 1039.33 1038.83 1037.95 1035.75 1034.23 1033.29 1032.53 1031.69 1031.34 1030.52 1029.80 1029.50 1029.05 1028.96 1028.13 1028.17 1027.60 1026.71 1026.07 1025.00 1024.16 1023.18 1022.31 1021.22 1020.44 1019.38 1018.88 1017.84 1017.13 1016.59 1015.49 1014.61 1014.12 1013.29 1011.83 1011.79
1037.02 1035.47 1034.50 1034.29 1034.60 1035.32 1036.31 1036.93 1037.64 1037.39 1036.06 1035.24 1034.41 1033.45 1032.72 1031.90 1031.39 1030.93 1030.46 1030.04 1029.77 1029.07 1028.90 1028.66 1027.76 1027.23 1027.18 1026.75 1025.90 1024.86 1024.04 1022.66 1021.89 1020.93 1019.69 1019.02 1019.04 1018.05 1016.85 1016.49 1015.59 1014.79 1013.71 1011.81
1038.48 1036.76 1035.43 1034.00 1033.63 1034.00 1034.78 1034.80 1035.02 1034.98 1034.62 1034.38 1033.95 1033.14 1032.39 1031.77 1031.27 1030.83 1030.72 1030.70 1030.06 1029.21 1028.64 1028.58 1028.12 1027.61 1027.79 1027.26 1026.48 1025.62 1024.90 1024.26 1023.18 1022.16 1021.15 1020.70 1019.93 1019.45 1017.80 1017.19 1016.55 1015.04 1014.37 1013.76
1040.06 1038.95 1035.82 1033.70 1033.38 1033.56 1034.12 1033.34 1032.80 1033.28 1033.39 1033.36 1033.28 1033.03 1032.42 1031.61 1031.42 1030.97 1030.85 1030.55 1030.15 1029.73 1029.09 1028.43 1028.32 1028.37 1028.11 1027.67 1027.00 1026.29 1025.53 1025.01 1023.98 1023.26 1022.61 1022.29 1021.25 1020.45 1019.20 1018.27 1017.52 1016.55 1016.30 1015.22
1040.49 1039.36 1036.60 1033.54 1032.87 1033.12 1033.80 1033.19 1032.04 1032.44 1032.64 1032.83 1033.00 1033.21 1032.39 1031.76 1031.32 1030.89 1030.95 1030.80 1030.32 1029.86 1029.36 1028.90 1028.75 1028.56 1028.36 1027.97 1027.62 1027.09 1026.38 1025.71 1024.99 1024.10 1023.24 1023.03 1022.63 1021.58 1020.02 1019.30 1019.06 1018.14 1018.69 1017.36
1039.62 1038.54 1035.35 1032.95 1033.12 1033.66 1034.02 1032.78 1031.75 1031.97 1032.15 1032.53 1032.84 1032.39 1031.88 1031.61 1031.41 1031.13 1030.91 1030.82 1030.43 1030.33 1030.18 1029.69 1029.43 1029.03 1028.55 1028.40 1027.99 1027.61 1026.90 1026.00 1025.19 1024.82 1024.08 1023.89 1023.12 1021.92 1021.23 1020.49 1019.91 1019.35 1019.40 1018.86
1038.80 1037.61 1034.83 1032.78 1033.88 1033.84 1032.35 1032.13 1031.88 1032.00 1031.94 1032.03 1031.98 1031.83 1031.89 1031.62 1031.28 1031.28 1031.01 1030.70 1030.61 1030.50 1030.36 1030.07 1029.82 1029.37 1029.13 1028.76 1028.50 1027.96 1027.17 1026.24 1025.57 1025.23 1024.81 1024.50 1023.86 1022.82 1022.26 1021.65 1021.38 1020.72 1020.68 1020.43
1037.03 1034.04 1032.31 1032.14 1031.89 1031.78 1032.14 1032.37 1032.35 1032.45 1031.99 1031.90 1031.99 1031.85 1031.76 1031.80 1031.76 1031.36 1031.38 1031.17 1030.97 1030.69 1030.59 1030.56 1030.21 1030.02 1029.61 1029.41 1028.87 1028.24 1027.58 1026.95 1026.18 1025.79 1025.23 1025.06 1024.73 1023.86 1023.09 1022.68 1022.35 1022.11 1021.65 1021.50
1036.39 1032.66 1032.77 1032.49 1032.33 1032.55 1032.64 1032.88 1032.57 1032.44 1032.36 1032.28 1032.24 1031.96 1032.07 1031.94 1032.03 1032.06 1031.61 1031.21 1030.99 1031.05 1031.15 1030.97 1030.56 1030.20 1030.20 1029.89 1029.25 1028.57 1028.02 1027.47 1026.54 1026.07 1025.42 1025.74 1025.48 1024.75 1023.80 1023.35 1023.19 1022.99 1022.84 1022.73
1035.21 1033.13 1033.02 1032.45 1032.71 1032.12 1032.57 1032.97 1033.22 1032.95 1032.73 1032.55 1032.67 1032.47 1032.46 1032.60 1032.35 1032.34 1032.27 1032.01 1031.84 1031.89 1031.55 1031.21 1030.84 1030.51 1030.50 1030.13 1029.68 1029.08 1028.61 1027.97 1027.40 1026.93 1026.89 1026.61 1025.80 1025.19 1024.53 1024.22 1023.99 1023.77 1023.75 1023.84
1033.28 1032.25 1032.86 1032.73 1032.26 1032.68 1033.05 1032.98 1032.90 1033.18 1033.19 1032.69 1032.72 1032.71 1032.69 1032.69 1032.67 1032.87 1032.55 1032.35 1032.27 1031.91 1031.65 1031.33 1031.10 1030.77 1030.39 1030.29 1029.93 1029.41 1029.02 1028.52 1028.00 1027.90 1027.67 1026.81 1026.24 1025.67 1025.41 1025.19 1024.93 1024.72 1024.25 1024.14
1031.99 1032.31 1032.64 1032.25 1032.82 1032.79 1033.09 1032.83 1032.67 1032.85 1032.80 1033.16 1032.56 1032.80 1032.92 1032.84 1032.68 1032.48 1032.28 1032.32 1032.37 1032.28 1031.88 1031.64 1031.31 1031.05 1030.51 1030.16 1029.94 1029.61 1029.35 1028.94 1028.67 1028.19 1027.79 1027.46 1026.95 1026.72 1026.26 1025.95 1025.47 1025.29 1025.47 1025.22
1031.66 1032.61 1032.70 1032.69 1032.54 1032.17 1032.36 1032.47 1032.58 1032.64 1032.84 1032.81 1032.69 1032.60 1032.69 1032.50 1032.40 1032.12 1031.98 1031.60 1031.90 1031.76 1031.52 1031.33 1031.02 1030.60 1030.11 1030.04 1030.01 1029.88 1029.45 1028.89 1028.94 1028.57 1027.97 1027.83 1027.58 1027.43 1027.31 1026.96 1026.34 1026.20 1026.18 1025.81
1030.78 1031.45 1031.50 1031.77 1031.95 1031.99 1032.03 1032.04 1032.41 1032.52 1032.15 1032.07 1032.03 1031.76 1031.72 1031.58 1031.36 1031.04 1030.76 1030.81 1031.00 1031.14 1030.95 1030.84 1030.66 1030.25 1029.94 1029.93 1029.84 1029.58 1029.48 1029.08 1028.80 1028.47 1028.38 1028.18 1028.04 1028.13 1028.16 1027.81 1027.42 1027.29 1027.13 1026.84
1029.77 1030.22 1030.87 1031.05 1031.09 1031.38 1031.58 1031.51 1031.30 1031.00 1030.81 1030.54 1030.39 1030.20 1029.94 1030.06 1030.02 1029.95 1030.02 1030.33 1030.60 1030.22 1029.80 1029.95 1029.94 1029.46 1029.53 1029.63 1029.64 1029.49 1029.08 1028.47 1028.01 1028.10 1028.41 1028.44 1028.48 1028.63 1028.76 1028.61 1028.31 1028.19 1027.89 1027.41
1028.99 1029.21 1029.35 1029.46 1029.55 1029.48 1029.52 1029.42 1029.39 1029.20 1029.08 1029.00 1028.72 1028.46 1028.49 1028.69 1028.84 1028.83 1028.82 1029.10 1029.30 1029.33 1029.25 1029.30 1028.82 1028.54 1028.65 1028.74 1028.80 1028.77 1028.59 1028.55 1028.31 1028.33 1028.65 1028.65 1028.73 1028.85 1028.85 1028.69 1028.50 1028.29 1028.05 1027.59
1026.49 1026.57 1026.69 1026.88 1027.13 1027.68 1027.95 1028.00 1028.05 1027.92 1027.81 1027.56 1027.42 1027.46 1027.59 1027.73 1027.69 1027.64 1027.60 1027.83 1028.23 1028.44 1028.46 1028.21 1028.18 1028.14 1028.08 1028.10 1028.21 1028.22 1028.29 1028.27 1028.36 1028.42 1028.26 1028.50 1028.55 1028.86 1028.56 1028.38 1028.40 1028.34 1028.30 1028.06
1025.43 1025.56 1025.87 1026.00 1026.16 1026.50 1026.80 1027.00 1027.03 1026.94 1026.89 1026.89 1026.88 1026.79 1026.76 1026.79 1026.72 1026.65 1026.78 1027.10 1027.49 1027.66 1027.16 1027.22 1027.37 1027.38 1027.54 1027.55 1027.59 1027.65 1027.82 1027.98 1028.20 1028.35 1028.23 1028.07 1028.11 1028.47 1027.65 1027.87 1028.21 1028.16 1027.97 1028.02
1024.52 1024.84 1025.18 1025.38 1025.66 1025.95 1026.21 1026.35 1026.44 1026.62 1026.53 1026.52 1026.46 1026.41 1026.34 1026.25 1026.17 1026.18 1026.27 1026.46 1026.45 1026.53 1026.56 1026.60 1026.71 1026.80 1026.87 1026.96 1026.95 1027.07 1027.36 1027.58 1027.84 1028.02 1028.06 1028.01 1027.97 1027.81 1027.57 1027.49 1027.46 1027.75 1027.75 1027.73
1023.85 1024.21 1024.52 1024.83 1025.21 1025.52 1025.80 1026.02 1026.36 1026.46 1026.41 1026.37 1026.39 1026.31 1026.24 1026.18 1026.18 1026.21 1026.31 1026.37 1026.18 1026.15 1026.14 1026.13 1026.15 1026.22 1026.26 1026.34 1026.39 1026.46 1026.69 1027.00 1027.21 1027.27 1027.21 1027.18 1027.25 1027.22 1027.23 1027.17 1027.06 1027.13 1027.24 1027.24
1023.35 1023.79 1024.14 1024.49 1025.02 1025.41 1025.61 1025.89 1026.16 1026.29 1026.36 1026.36 1026.31 1026.28 1026.30 1026.29 1026.28 1026.28 1026.28 1026.37 1026.11 1025.95 1025.82 1025.79 1025.72 1025.67 1025.62 1025.59 1025.60 1025.77 1025.96 1026.11 1026.21 1026.26 1026.40 1026.48 1026.61 1026.59 1026.73 1026.79 1026.86 1026.82 1026.85 1026.73
1022.87 1023.38 1023.84 1024.37 1024.90 1025.22 1025.43 1025.75 1025.98 1026.11 1026.21 1026.25 1026.30 1026.33 1026.32 1026.31 1026.34 1026.46 1026.25 1026.01 1025.86 1025.77 1025.51 1025.41 1025.34 1025.06 1024.75 1024.53 1024.68 1024.95 1025.14 1025.37 1025.55 1025.65 1025.77 1025.85 1025.87 1026.00 1026.14 1026.18 1026.17 1026.21 1026.33 1026.29
1022.67 1023.24 1023.69 1024.23 1024.71 1025.23 1025.50 1025.58 1025.73 1025.83 1025.91 1026.02 1026.11 1026.14 1026.20 1026.23 1026.15 1026.01 1025.93 1025.69 1025.40 1025.27 1025.28 1025.15 1024.97 1024.69 1024.29 1024.41 1024.64 1024.85 1024.99 1025.08 1025.15 1025.20 1025.27 1025.20 1025.44 1025.52 1025.66 1025.74 1025.82 1025.86 1025.91 1026.01
1022.63 1023.22 1023.74 1024.27 1024.66 1024.99 1025.30 1025.46 1025.66 1025.80 1025.91 1025.93 1025.90 1025.89 1025.84 1025.87 1026.03 1025.76 1025.67 1025.56 1025.31 1025.00 1025.01 1024.89 1024.57 1024.30 1024.66 1024.87 1025.00 1025.04 1025.03 1025.00 1024.97 1024.96 1024.96 1025.02 1025.03 1025.08 1025.15 1025.25 1025.35 1025.43 1025.42 1025.36
1022.76 1023.16 1023.58 1023.90 1024.33 1024.82 1025.14 1025.52 1025.85 1025.79 1025.83 1025.84 1025.73 1025.67 1025.64 1025.64 1025.66 1025.52 1025.49 1025.26 1025.12 1024.98 1024.85 1024.87 1024.80 1024.66 1024.53 1024.49 1024.56 1024.62 1024.66 1024.67 1024.60 1024.53 1024.50 1024.53 1024.57 1024.59 1024.58 1024.57 1024.59 1024.61 1024.66 1024.71
1022.83 1023.12 1023.71 1024.12 1024.31 1024.46 1024.84 1025.22 1025.71 1025.70 1025.59 1025.62 1025.58 1025.50 1025.48 1025.46 1025.48 1025.23 1025.20 1025.21 1025.06 1024.93 1024.80 1024.65 1024.51 1024.39 1024.24 1024.14 1024.06 1024.00 1023.96 1023.94 1023.94 1023.98 1023.95 1023.96 1023.99 1024.02 1024.07 1024.06 1024.04 1023.99 1023.98 1024.02
Thickness
5195 5202 5197 5187 5185 5146 5126 5098 5127 5134 5132 5167 5188 5201 5220 5227 5243 5259 5271 5281 5294 5305 5314 5332 5346 5365 5381 5393 5414 5431 5442 5462 5482 5495 5513 5525 5544 5559 5574 5583 5597 5615 5611 5606
5198 5223 5214 5209 5200 5174 5146 5089 5095 5096 5137 5158 5181 5196 5208 5221 5231 5244 5256 5265 5279 5290 5308 5317 5331 5347 5363 5379 5393 5410 5425 5446 5463 5480 5494 5510 5524 5536 5549 5561 5574 5587 5607 5613
5187 5212 5209 5195 5183 5174 5150 5127 5135 5146 5158 5153 5174 5195 5203 5214 5222 5231 5242 5254 5262 5278 5290 5301 5318 5332 5341 5354 5369 5385 5399 5423 5442 5457 5477 5490 5496 5512 5526 5536 5550 5564 5577 5602
5180 5186 5152 5194 5185 5187 5178 5173 5156 5162 5162 5161 5169 5176 5188 5203 5213 5222 5226 5236 5249 5265 5280 5291 5304 5318 5325 5338 5353 5368 5382 5397 5417 5434 5450 5463 5475 5486 5505 5516 5530 5546 5560 5572
5150 5144 5196 5208 5195 5177 5163 5172 5175 5166 5169 5166 5167 5165 5175 5199 5202 5211 5216 5225 5237 5249 5264 5280 5290 5299 5311 5322 5337 5353 5365 5379 5397 5412 5425 5436 5453 5465 5480 5497 5513 5527 5534 5549
5153 5159 5181 5190 5196 5185 5167 5163 5176 5171 5168 5166 5164 5149 5169 5186 5194 5205 5210 5216 5226 5238 5251 5263 5273 5285 5296 5306 5318 5331 5347 5361 5375 5392 5408 5417 5428 5445 5464 5479 5489 5502 5501 5518
5171 5165 5186 5197 5191 5179 5145 5175 5176 5169 5164 5157 5145 5152 5164 5173 5183 5192 5199 5206 5216 5223 5231 5242 5254 5267 5280 5290 5300 5312 5327 5344 5360 5371 5387 5395 5409 5428 5441 5457 5469 5479 5485 5496
5178 5152 5167 5199 5180 5164 5178 5165 5173 5163 5158 5153 5153 5156 5156 5163 5172 5179 5187 5196 5204 5211 5220 5228 5239 5252 5264 5275 5284 5295 5310 5327 5341 5353 5364 5376 5388 5404 5419 5431 5441 5453 5460 5472
5198 5219 5206 5201 5194 5183 5156 5159 5148 5142 5151 5148 5145 5149 5153 5153 5156 5165 5172 5180 5188 5198 5207 5213 5223 5232 5245 5254 5267 5279 5292 5306 5321 5333 5345 5355 5366 5380 5394 5406 5416 5425 5437 5448
5205 5219 5201 5195 5182 5160 5151 5151 5138 5138 5136 5139 5137 5141 5142 5144 5142 5146 5157 5167 5178 5184 5190 5199 5208 5219 5227 5237 5250 5263 5275 5287 5303 5315 5329 5334 5343 5356 5371 5382 5392 5401 5411 5419
5201 5215 5195 5194 5178 5176 5156 5143 5133 5126 5126 5130 5126 5128 5128 5128 5132 5133 5139 5146 5154 5161 5174 5185 5195 5204 5211 5221 5231 5244 5255 5268 5279 5291 5299 5310 5323 5335 5348 5359 5368 5378 5386 5393
5237 5226 5208 5201 5177 5155 5156 5148 5140 5124 5120 5117 5115 5123 5113 5121 5121 5120 5127 5132 5139 5150 5159 5169 5179 5189 5198 5205 5215 5226 5237 5249 5259 5267 5276 5291 5302 5314 5322 5332 5342 5351 5361 5372
5237 5195 5189 5184 5164 5149 5150 5139 5125 5121 5118 5115 5112 5109 5104 5108 5109 5117 5120 5121 5124 5132 5141 5151 5161 5171 5181 5191 5201 5211 5219 5229 5238 5249 5259 5268 5278 5287 5297 5307 5318 5327 5334 5344
5199 5196 5198 5171 5187 5152 5140 5128 5120 5112 5104 5105 5107 5100 5100 5102 5104 5109 5116 5121 5116 5121 5130 5136 5146 5160 5169 5176 5182 5190 5201 5214 5219 5230 5242 5249 5258 5265 5272 5282 5294 5302 5311 5321
5217 5201 5196 5171 5157 5150 5130 5123 5122 5114 5108 5104 5098 5102 5097 5103 5105 5111 5114 5115 5115 5116 5121 5125 5132 5144 5153 5159 5167 5174 5183 5193 5201 5212 5220 5229 5236 5242 5247 5257 5266 5274 5282 5291
5208 5193 5180 5173 5167 5148 5137 5127 5119 5117 5112 5111 5113 5112 5111 5109 5109 5110 5111 5107 5107 5116 5123 5121 5126 5134 5138 5142 5148 5157 5166 5180 5191 5196 5199 5206 5212 5218 5223 5231 5238 5247 5256 5267
5229 5213 5191 5182 5175 5164 5152 5145 5136 5131 5125 5120 5118 5117 5115 5112 5110 5111 5111 5110 5109 5109 5113 5115 5122 5128 5131 5134 5135 5142 5150 5157 5168 5172 5177 5184 5190 5196 5203 5211 5219 5227 5235 5246
5240 5228 5216 5203 5187 5171 5158 5148 5138 5130 5124 5121 5119 5116 5113 5111 5110 5112 5111 5110 5107 5106 5107 5110 5112 5116 5120 5122 5125 5128 5132 5138 5144 5150 5158 5163 5169 5174 5184 5190 5196 5204 5212 5220
5237 5227 5211 5198 5184 5170 5157 5146 5137 5129 5122 5117 5114 5112 5110 5109 5109 5110 5109 5105 5102 5100 5105 5107 5108 5110 5108 5110 5114 5116 5119 5123 5125 5129 5137 5146 5151 5153 5169 5175 5177 5184 5191 5197
5238 5223 5208 5195 5180 5166 5154 5143 5133 5123 5118 5112 5109 5108 5107 5106 5106 5105 5104 5102 5102 5100 5101 5100 5099 5098 5099 5100 5104 5105 5105 5106 5108 5111 5116 5122 5129 5136 5144 5153 5160 5163 5169 5177
5237 5221 5206 5192 5176 5163 5149 5135 5124 5115 5112 5108 5104 5102 5101 5100 5098 5097 5097 5093 5095 5095 5094 5094 5092 5090 5090 5091 5092 5092 5092 5093 5094 5098 5103 5108 5113 5118 5124 5130 5137 5144 5149 5156
5231 5214 5201 5187 5171 5155 5143 5129 5118 5113 5107 5102 5098 5095 5092 5091 5090 5089 5088 5085 5086 5087 5086 5084 5082 5082 5082 5084 5084 5082 5082 5083 5085 5088 5090 5093 5097 5101 5104 5110 5115 5121 5127 5134
5223 5208 5195 5178 5162 5147 5137 5126 5115 5108 5101 5096 5092 5088 5086 5085 5083 5079 5080 5081 5079 5077 5078 5075 5074 5075 5077 5079 5076 5074 5073 5072 5072 5074 5076 5079 5083 5086 5089 5094 5098 5103 5107 5113
5219 5203 5185 5170 5153 5141 5125 5120 5111 5103 5097 5092 5087 5084 5081 5078 5078 5077 5075 5075 5075 5073 5069 5067 5065 5066 5068 5066 5062 5060 5060 5060 5060 5061 5062 5066 5067 5069 5072 5075 5079 5083 5087 5092
5208 5192 5175 5159 5146 5136 5123 5114 5105 5096 5090 5085 5083 5081 5079 5076 5072 5072 5069 5066 5066 5065 5060 5058 5059 5058 5053 5050 5048 5047 5046 5047 5048 5048 5050 5052 5054 5055 5057 5060 5062 5066 5071 5076
5199 5184 5169 5157 5142 5128 5117 5105 5095 5089 5085 5081 5080 5077 5075 5072 5068 5066 5062 5060 5057 5054 5052 5047 5044 5044 5043 5041 5040 5038 5037 5037 5039 5040 5041 5042 5043 5045 5047 5049 5051 5054 5058 5061
5190 5177 5157 5145 5134 5123 5110 5099 5088 5084 5082 5077 5074 5073 5069 5066 5062 5061 5056 5051 5047 5043 5041 5039 5038 5036 5036 5034 5034 5033 5033 5032 5033 5032 5033 5034 5034 5035 5036 5039 5042 5044 5047 5049